{"data":{"norad_id":67171,"intl_designator":"2025-303J","name":"STARLINK-35771","alt_names":[],"object_type":"PAYLOAD","status":"ACTIVE","operator":null,"country":"US","launch_date":"2025-12-17","launch_site_code":"AFETR","launch_vehicle":null,"mission":null,"orbit_class":"UNKNOWN","rcs_meters":null,"size_class":null,"mass_kg":null,"dimensions":null,"purposes":["comms"],"wikipedia_slug":null,"has_3d_model":false,"image_url":null,"decayed_at":null,"tle_current":{"epoch":"2026-05-24T13:17:29.685984Z","epoch_age_seconds":106983,"freshness":"FRESH","line1":"1 67171U 25303J   26144.55381581  .00017012  00000+0  62596-3 0  9999","line2":"2 67171  42.9998 242.6199 0001488 267.1676  92.9006 15.27597624 24330","mean_motion":15.27597624,"eccentricity":0.0001488,"inclination_deg":42.9998,"raan_deg":242.6199,"arg_perigee_deg":267.1676,"mean_anomaly_deg":92.9006,"bstar":0.00062596,"rev_number":2433,"period_min":94.265661151617,"perigee_km":481.97538731222,"apogee_km":484.01726058942,"semimajor_km":6861.1333239508,"source":"CELESTRAK","updated_at":"2026-05-25T13:38:21.481135Z"}}}